VK4HIT-13 Weather Reports


time (UTC)temp
F
wind
direction
speed
knots
gust
knots
rain 1hr
in
rain 24hr
in
rain mn
in
humidity
%
barometer
mb
20260503021935 75 16 3.5 8.7 0.00 0.01 0.00 62 1019.8
20260503021435 75 26 4.3 9.6 0.00 0.01 0.00 63 1019.9
20260503020935 74 27 6.1 9.6 0.00 0.01 0.00 63 1020.0
20260503020435 74 19 5.2 12.2 0.00 0.01 0.00 65 1020.1
20260503015935 74 21 4.3 9.6 0.00 0.01 0.00 64 1020.1
20260503015435 74 18 5.2 9.6 0.00 0.01 0.00 65 1020.1
20260503014935 74 26 4.3 12.2 0.00 0.01 0.00 64 1020.3
20260503014435 75 22 3.5 7.0 0.00 0.01 0.00 64 1020.2
20260503013935 75 19 6.1 10.4 0.00 0.01 0.00 64 1020.3
20260503013435 74 24 5.2 13.0 0.00 0.01 0.00 64 1020.4
20260503012935 74 21 5.2 8.7 0.00 0.01 0.00 64 1020.4
20260503012435 74 24 5.2 10.4 0.00 0.01 0.00 64 1020.5
20260503011935 74 19 4.3 8.7 0.00 0.01 0.00 65 1020.6
20260503011435 74 25 4.3 12.2 0.00 0.01 0.00 66 1020.9
20260503010935 73 29 4.3 9.6 0.00 0.01 0.00 66 1021.0
20260503010435 74 23 4.3 10.4 0.00 0.01 0.00 66 1021.0
20260503005935 74 23 4.3 7.8 0.00 0.01 0.00 66 1021.2
20260503005435 74 26 5.2 10.4 0.00 0.01 0.00 67 1021.1
20260503004935 73 18 6.1 10.4 0.00 0.01 0.00 67 1021.2
20260503004435 73 17 7.0 9.6 0.00 0.01 0.00 67 1021.2
20260503003935 73 22 6.1 13.0 0.00 0.01 0.00 67 1021.3
20260503003435 73 28 6.1 10.4 0.00 0.01 0.00 69 1021.4
20260503002935 73 18 5.2 11.3 0.00 0.01 0.00 69 1021.3
20260503002435 73 18 3.5 5.2 0.00 0.01 0.00 69 1021.5
20260503001935 72 19 5.2 9.6 0.00 0.01 0.00 70 1021.7
20260503001435 72 28 4.3 10.4 0.00 0.01 0.00 71 1021.7
20260503000935 72 24 3.5 8.7 0.00 0.01 0.00 72 1021.7
20260503000437 72 0 3.5 7.8 0.00 0.01 0.00 72 1021.6
20260502235935 71 28 2.6 7.8 0.00 0.01 0.00 72 1021.8
20260502235435 71 28 2.6 7.0 0.00 0.01 0.00 73 1021.8
20260502234935 71 27 3.5 8.7 0.00 0.01 0.00 73 1021.8
20260502234435 71 28 4.3 5.2 0.00 0.01 0.00 73 1021.8
20260502233935 70 33 4.3 9.6 0.00 0.01 0.00 73 1021.7
20260502233435 70 0 3.5 7.8 0.00 0.01 0.00 75 1021.7
20260502232935 69 30 2.6 9.6 0.00 0.01 0.00 75 1021.8
20260502232435 69 33 3.5 8.7 0.00 0.01 0.00 75 1021.9
20260502231935 69 22 3.5 7.0 0.00 0.01 0.00 75 1021.8
20260502231435 68 0 4.3 8.7 0.00 0.01 0.00 76 1022.0
20260502230935 68 26 6.1 8.7 0.00 0.01 0.00 75 1022.0
20260502230435 68 25 5.2 9.6 0.00 0.01 0.00 76 1022.1
20260502225935 68 33 4.3 9.6 0.00 0.01 0.00 75 1022.1
20260502225435 68 24 4.3 7.8 0.00 0.01 0.00 75 1022.2
20260502224935 68 28 4.3 9.6 0.00 0.01 0.00 75 1022.2
20260502224435 68 24 3.5 6.1 0.00 0.01 0.00 76 1022.1
20260502223935 68 24 5.2 7.8 0.00 0.01 0.00 76 1022.1
20260502223435 67 28 5.2 10.4 0.00 0.01 0.00 76 1022.0
20260502222935 67 18 4.3 9.6 0.00 0.01 0.00 76 1022.0
20260502222435 67 25 3.5 7.8 0.00 0.01 0.00 77 1021.9
20260502221935 66 26 3.5 5.2 0.00 0.01 0.00 78 1021.9
20260502221435 66 36 4.3 7.0 0.00 0.02 0.00 77 1021.9
20260502220935 66 32 4.3 8.7 0.00 0.02 0.00 78 1021.9
20260502220435 66 24 5.2 9.6 0.00 0.02 0.00 78 1021.8
20260502215935 65 30 5.2 8.7 0.00 0.02 0.00 78 1021.7
20260502215435 65 30 4.3 10.4 0.00 0.02 0.00 79 1021.7
20260502214935 65 28 4.3 9.6 0.00 0.02 0.00 79 1021.6
20260502214435 65 30 4.3 7.8 0.00 0.02 0.00 80 1021.5
20260502213935 65 26 4.3 7.8 0.00 0.02 0.00 80 1021.3
20260502213435 65 30 5.2 7.8 0.00 0.02 0.00 80 1021.6
20260502212935 64 29 5.2 9.6 0.00 0.02 0.00 80 1021.5
20260502212435 64 31 5.2 8.7 0.00 0.02 0.00 81 1021.5
20260502211935 64 30 4.3 7.8 0.00 0.02 0.00 81 1021.4
20260502211435 64 32 4.3 9.6 0.00 0.02 0.00 81 1021.2
20260502210935 63 30 5.2 8.7 0.00 0.02 0.00 81 1021.1
20260502210435 63 26 5.2 8.7 0.00 0.02 0.00 82 1021.1
20260502205935 63 30 5.2 7.8 0.00 0.02 0.00 82 1021.3
20260502205435 63 29 5.2 8.7 0.00 0.02 0.00 82 1021.2
20260502204935 63 26 5.2 7.8 0.00 0.02 0.00 82 1021.0
20260502204435 63 24 4.3 7.8 0.00 0.02 0.00 82 1021.0
20260502203935 63 29 4.3 7.8 0.00 0.02 0.00 82 1021.0
20260502203435 63 27 5.2 7.8 0.00 0.02 0.00 82 1021.0
20260502202935 63 26 6.1 10.4 0.00 0.02 0.00 82 1020.8
20260502202435 63 26 7.0 9.6 0.00 0.02 0.00 82 1020.7
20260502201935 63 30 7.0 13.0 0.00 0.02 0.00 81 1020.7
20260502201435 63 26 6.1 9.6 0.00 0.02 0.00 81 1020.7
20260502200935 63 24 7.0 9.6 0.00 0.02 0.00 81 1020.7
20260502200435 63 24 7.0 10.4 0.00 0.02 0.00 82 1020.6
20260502195935 63 32 6.1 9.6 0.00 0.02 0.00 82 1020.7
20260502195435 63 28 5.2 7.8 0.00 0.02 0.00 83 1020.7
20260502194935 63 28 4.3 7.8 0.00 0.02 0.00 83 1020.7
20260502194435 63 28 5.2 8.7 0.00 0.02 0.00 82 1020.7
20260502193935 63 29 7.0 9.6 0.00 0.02 0.00 82 1020.5
20260502193435 63 25 7.0 12.2 0.00 0.02 0.00 82 1020.5
20260502192935 63 26 6.1 9.6 0.00 0.02 0.00 82 1020.4
20260502192435 63 27 6.1 10.4 0.00 0.02 0.00 82 1020.2
20260502191935 63 22 5.2 8.7 0.00 0.02 0.00 82 1020.3
20260502191435 63 22 3.5 7.0 0.00 0.02 0.00 82 1020.4
20260502190935 63 23 2.6 7.0 0.00 0.02 0.00 82 1020.5
20260502190435 63 19 2.6 7.0 0.00 0.02 0.00 83 1020.6
20260502185935 63 26 2.6 3.5 0.00 0.02 0.00 83 1020.6
20260502185436 63 28 2.6 5.2 0.00 0.02 0.00 83 1020.4
20260502184935 63 22 2.6 4.3 0.00 0.02 0.00 83 1020.4
20260502184435 63 26 2.6 5.2 0.00 0.02 0.00 83 1020.5
20260502183935 63 24 3.5 5.2 0.00 0.02 0.00 84 1020.3
20260502183435 63 26 3.5 5.2 0.00 0.02 0.00 84 1020.3
20260502182935 63 24 3.5 7.0 0.00 0.02 0.00 84 1020.3
20260502182435 63 24 3.5 7.0 0.00 0.02 0.00 83 1020.3
20260502181935 64 26 3.5 5.2 0.00 0.02 0.00 84 1020.3
20260502181435 64 25 3.5 6.1 0.00 0.02 0.00 84 1020.2
20260502180935 63 22 2.6 7.0 0.00 0.02 0.00 84 1020.2
20260502180435 63 27 2.6 5.2 0.00 0.02 0.00 84 1020.4
20260502170436 64 26 4.3 7.8 0.00 0.02 0.00 85 1020.5
20260502163936 64 26 5.2 8.7 0.00 0.02 0.00 86 1020.7
20260502163436 64 24 5.2 8.7 0.00 0.02 0.00 86 1020.8
20260502162936 64 17 4.3 8.7 0.00 0.02 0.00 87 1020.9
20260502162436 64 23 4.3 8.7 0.00 0.02 0.00 87 1020.9
20260502161936 64 26 5.2 7.8 0.00 0.02 0.00 87 1020.8
20260502161436 64 26 5.2 8.7 0.00 0.02 0.00 87 1020.8
20260502160936 64 25 5.2 7.8 0.00 0.02 0.00 87 1020.9
20260502160436 64 24 6.1 9.6 0.00 0.02 0.00 86 1020.7
20260502151936 64 22 5.2 7.8 0.00 0.02 0.00 87 1021.1
20260502151436 65 26 5.2 7.8 0.00 0.02 0.00 87 1021.2
20260502150936 65 24 6.1 9.6 0.00 0.02 0.00 87 1021.2
20260502150436 65 22 6.1 8.7 0.00 0.02 0.00 87 1021.2
20260502130436 66 29 4.3 8.7 0.00 0.06 0.04 88 1021.5
20260502123436 66 28 3.5 7.0 0.00 0.06 0.04 88 1021.6
20260502122936 66 30 3.5 7.0 0.00 0.06 0.04 88 1021.7
20260502122436 67 31 3.5 7.0 0.00 0.06 0.04 88 1021.8
20260502121936 67 29 3.5 6.1 0.00 0.06 0.04 88 1021.7
20260502121436 67 25 2.6 5.2 0.00 0.06 0.04 88 1021.7
20260502120936 67 25 2.6 5.2 0.00 0.06 0.04 89 1021.7
20260502120436 67 26 2.6 3.5 0.00 0.06 0.04 88 1021.7
20260502115436 67 27 2.6 4.3 0.00 0.06 0.04 89 1021.8
20260502114936 67 24 2.6 5.2 0.00 0.06 0.04 89 1021.9
20260502114436 67 22 3.5 3.5 0.00 0.06 0.04 89 1022.0
20260502113936 67 29 2.6 7.0 0.00 0.06 0.04 89 1022.0
20260502113436 67 31 1.7 3.5 0.00 0.06 0.04 89 1021.9
20260502112936 67 26 1.7 4.3 0.00 0.06 0.04 89 1021.9
20260502112436 67 24 1.7 5.2 0.00 0.06 0.04 90 1021.8
20260502111936 67 27 1.7 2.6 0.00 0.06 0.04 90 1021.8
20260502111436 67 23 0.9 2.6 0.01 0.10 0.04 90 1021.8
20260502110936 67 21 1.7 2.6 0.01 0.10 0.04 90 1021.7
20260502110436 67 28 1.7 3.5 0.01 0.10 0.04 90 1021.6
20260502105936 67 24 1.7 4.3 0.01 0.10 0.04 90 1021.6
20260502105436 67 31 1.7 4.3 0.01 0.10 0.04 89 1021.6
20260502104936 67 21 0.9 3.5 0.01 0.10 0.04 89 1021.7
20260502104436 67 40 1.7 4.3 0.01 0.10 0.04 88 1021.7
20260502103936 67 26 4.3 8.7 0.01 0.10 0.04 88 1021.8
20260502103436 67 26 5.2 9.6 0.01 0.10 0.04 88 1021.7
20260502102936 67 19 5.2 11.3 0.01 0.10 0.04 87 1021.6
20260502102436 67 28 4.3 7.8 0.01 0.10 0.04 87 1021.6
20260502101936 68 22 3.5 7.8 0.01 0.10 0.04 87 1021.7
20260502101436 68 23 2.6 5.2 0.00 0.09 0.03 86 1021.7
20260502100936 68 32 2.6 4.3 0.00 0.09 0.03 86 1021.6
20260502100436 68 21 2.6 5.2 0.00 0.09 0.03 86 1021.6
20260502091436 68 27 3.5 7.8 0.00 0.09 0.03 85 1021.2
20260502090936 68 28 3.5 8.7 0.00 0.09 0.03 85 1021.0
20260502090436 68 16 4.3 8.7 0.00 0.09 0.03 85 1020.9
20260502071436 70 29 4.3 8.7 0.00 0.09 0.03 78 1020.5
20260502070936 70 26 3.5 7.0 0.00 0.09 0.03 78 1020.4
20260502070436 70 26 4.3 7.8 0.00 0.09 0.03 77 1020.2
20260502065936 70 22 5.2 9.6 0.00 0.09 0.03 77 1020.0
20260502065436 70 23 6.1 13.0 0.00 0.09 0.03 75 1020.1
20260502064936 71 19 7.0 13.0 0.00 0.09 0.03 76 1019.9
20260502064436 71 22 6.1 12.2 0.00 0.09 0.03 74 1019.9
20260502063936 72 24 5.2 12.2 0.00 0.09 0.03 73 1019.9
20260502063436 72 22 5.2 9.6 0.00 0.09 0.03 73 1020.0
20260502062936 72 15 5.2 9.6 0.00 0.09 0.03 72 1019.9
20260502062436 72 22 6.1 10.4 0.00 0.09 0.03 71 1019.8
20260502061936 73 22 6.1 13.9 0.00 0.09 0.03 70 1019.9
20260502061436 73 17 6.1 13.0 0.00 0.09 0.03 69 1019.9
20260502060936 73 23 6.1 13.9 0.00 0.09 0.03 68 1019.7
20260502060436 73 23 7.8 12.2 0.00 0.09 0.03 67 1019.7
20260502055936 73 24 8.7 15.6 0.00 0.09 0.03 67 1019.8
20260502055437 73 17 8.7 19.1 0.00 0.09 0.03 66 1019.8
20260502054936 74 22 9.6 17.4 0.00 0.09 0.03 65 1019.7
20260502054437 74 26 9.6 17.4 0.00 0.09 0.03 64 1019.7
20260502053937 74 27 7.8 15.6 0.00 0.09 0.03 65 1019.7
20260502053436 74 23 6.1 10.4 0.00 0.09 0.03 68 1019.7
20260502052937 73 22 5.2 13.9 0.00 0.09 0.03 70 1019.8
20260502052437 73 24 4.3 12.2 0.00 0.09 0.03 72 1019.6
20260502051937 73 27 5.2 11.3 0.00 0.09 0.03 72 1019.5
20260502051437 73 29 8.7 15.6 0.00 0.09 0.03 72 1019.5
20260502050937 74 15 7.8 16.5 0.00 0.09 0.03 68 1019.6
20260502050437 76 15 7.0 15.6 0.00 0.09 0.03 66 1019.5
20260502045937 76 22 7.8 16.5 0.00 0.09 0.03 66 1019.5
20260502045437 75 19 7.8 15.6 0.00 0.09 0.03 66 1019.5
20260502044937 75 19 7.8 13.9 0.00 0.09 0.03 67 1019.6
20260502044437 74 15 7.8 15.6 0.00 0.09 0.03 67 1019.7
20260502043937 75 17 7.8 14.8 0.00 0.09 0.03 66 1019.8
20260502043437 75 19 7.8 15.6 0.00 0.09 0.03 66 1019.8
20260502042937 75 24 7.8 13.0 0.00 0.09 0.03 66 1019.8
20260502042437 75 22 9.6 13.9 0.00 0.09 0.03 65 1019.7
20260502041937 76 21 10.4 14.8 0.00 0.09 0.03 64 1019.6
20260502041437 75 22 8.7 18.2 0.00 0.09 0.03 65 1019.6
20260502040937 75 23 5.2 18.2 0.00 0.09 0.03 65 1019.6
20260502040437 75 55 6.1 13.0 0.00 0.09 0.03 66 1019.6
20260502035937 75 20 6.1 18.2 0.00 0.09 0.03 64 1019.6
20260502035437 75 27 3.5 12.2 0.00 0.09 0.03 63 1019.7
20260502034937 76 33 2.6 7.0 0.00 0.09 0.03 64 1019.7
20260502034437 76 22 2.6 8.7 0.00 0.09 0.03 63 1019.8
20260502033937 75 13 0.9 7.8 0.00 0.09 0.03 65 1019.9
20260502033437 74 28 1.7 4.3 0.00 0.09 0.03 67 1019.9
20260502032937 74 9 4.3 11.3 0.00 0.09 0.03 68 1020.0
20260502032437 75 25 5.2 14.8 0.00 0.09 0.03 66 1020.0
20260502031937 75 18 3.5 12.2 0.00 0.09 0.03 64 1019.9
20260502031437 75 24 2.6 10.4 0.00 0.09 0.03 65 1020.0
20260502030937 75 28 2.6 9.6 0.00 0.09 0.03 65 1020.1
20260502030437 75 18 3.5 15.6 0.00 0.09 0.03 66 1020.1
20260502025937 75 19 6.1 13.0 0.00 0.09 0.03 65 1020.1
20260502025437 75 52 7.8 15.6 0.00 0.09 0.03 67 1020.1
20260502024937 76 5 8.7 13.9 0.00 0.09 0.03 66 1020.2
20260502024437 76 20 11.3 15.6 0.00 0.09 0.03 66 1020.6
20260502023937 76 24 11.3 18.2 0.00 0.09 0.03 66 1020.5
20260502023437 76 21 10.4 16.5 0.00 0.09 0.03 66 1020.5
20260502022937 76 18 10.4 16.5 0.00 0.09 0.03 67 1020.5
20260502022437 76 20 9.6 16.5 0.00 0.09 0.03 65 1020.5